EW4052 Weather Reports


time (UTC)temp
F
wind
direction
speed
knots
gust
knots
rain 1hr
in
rain 24hr
in
rain mn
in
humidity
%
barometer
mb
20260506091528 38 268 3.5 7.8 0.00 0.00 0.00 68 1014.7
20260506090024 38 288 2.6 7.8 0.00 0.00 0.00 67 1014.5
20260506084533 38 288 4.3 7.8 0.00 0.00 0.00 68 1014.4
20260506083023 39 293 5.2 7.8 0.00 0.00 0.00 68 1014.3
20260506081523 39 291 3.5 7.8 0.00 0.00 0.00 67 1014.2
20260506073012 40 274 5.2 8.7 0.00 0.00 0.00 66 1014.0
20260506071510 40 279 6.1 0.0 0.00 0.00 0.00 64 1014.1
20260506061613 42 278 5.2 9.6 0.00 0.00 0.00 61 1013.7
20260506044540 44 288 4.3 10.4 0.00 0.00 0.00 58 1012.8
20260506043039 45 290 4.3 9.6 0.00 0.00 0.00 56 1012.8
20260506041539 45 289 6.1 10.4 0.00 0.00 0.00 56 1012.7
20260506040040 46 262 5.2 9.6 0.00 0.00 0.00 54 1012.7
20260506034536 46 278 6.1 11.3 0.00 0.00 0.00 53 1012.7
20260506033040 46 285 6.1 11.3 0.00 0.00 0.00 52 1012.6
20260506031535 47 271 5.2 9.6 0.00 0.00 0.00 52 1012.7
20260506030035 47 277 7.0 10.4 0.00 0.00 0.00 52 1012.6
20260506024534 48 287 6.1 10.4 0.00 0.00 0.00 50 1012.4
20260506023101 48 271 5.2 10.4 0.00 0.00 0.00 50 1012.2
20260506021532 49 272 7.0 12.2 0.00 0.00 0.00 50 1012.0
20260506020029 49 263 7.0 12.2 0.00 0.00 0.00 50 1011.8
20260506014523 49 270 7.0 10.4 0.00 0.00 0.00 46 1011.4
20260506013020 49 278 2.6 8.7 0.00 0.00 0.00 45 1011.3
20260506011518 50 289 3.5 8.7 0.00 0.00 0.00 46 1011.1
20260506010033 50 292 4.3 12.2 0.00 0.00 0.00 46 1010.8
20260506004516 50 250 9.6 14.8 0.00 0.00 0.00 44 1010.6
20260506003015 51 278 10.4 14.8 0.00 0.00 0.00 44 1010.5
20260506001514 51 275 9.6 13.9 0.00 0.00 0.00 42 1010.5
20260506000013 51 265 7.0 13.0 0.00 0.00 0.00 44 1010.3
20260505234531 51 286 7.0 12.2 0.00 0.00 0.00 43 1010.2
20260505233012 52 266 9.6 14.8 0.00 0.00 0.00 46 1010.2
20260505231512 52 270 7.8 13.0 0.00 0.00 0.00 47 1010.1
20260505230011 52 266 8.7 17.4 0.00 0.00 0.00 44 1010.2
20260505224511 52 235 9.6 14.8 0.00 0.00 0.00 43 1010.1
20260505223010 52 299 7.0 13.9 0.00 0.00 0.00 44 1010.0
20260505221609 52 298 6.1 12.2 0.00 0.00 0.00 43 1009.9
20260505220009 52 281 9.6 13.9 0.00 0.00 0.00 45 1010.0
20260505214509 52 264 10.4 14.8 0.00 0.00 0.00 44 1010.1
20260505213008 52 284 9.6 15.6 0.00 0.00 0.00 44 1010.2
20260505211506 53 252 10.4 14.8 0.00 0.00 0.00 47 1010.2
20260505210006 53 273 9.6 15.6 0.00 0.00 0.00 45 1010.0
20260505204506 52 250 11.3 16.5 0.00 0.00 0.00 46 1010.1
20260505203013 53 247 10.4 13.9 0.00 0.00 0.00 46 1010.3
20260505201504 53 248 12.2 14.8 0.00 0.00 0.00 46 1010.3
20260505200004 54 296 3.5 16.5 0.00 0.00 0.00 43 1010.3
20260505194503 54 286 7.8 14.8 0.00 0.00 0.00 43 1010.4
20260505193000 53 240 4.3 15.6 0.00 0.00 0.00 39 1010.4
20260505191600 53 273 0.9 13.0 0.00 0.00 0.00 36 1010.5
20260505190059 54 265 0.9 7.0 0.00 0.00 0.00 39 1010.6
20260505184556 52 265 0.9 13.9 0.00 0.00 0.00 41 1010.7
20260505183056 51 250 4.3 17.4 0.00 0.00 0.00 40 1010.6
20260505181554 52 280 4.3 12.2 0.00 0.00 0.00 43 1010.6
20260505180107 51 262 7.0 13.0 0.00 0.00 0.00 47 1010.7
20260505174603 51 236 5.2 12.2 0.00 0.00 0.00 43 1010.8
20260505173052 51 252 2.6 13.0 0.00 0.00 0.00 43 1010.7
20260505171550 52 300 2.6 11.3 0.00 0.00 0.00 45 1010.6
20260505170049 51 236 4.3 11.3 0.00 0.00 0.00 41 1010.6
20260505164550 50 241 7.8 14.8 0.00 0.00 0.00 46 1010.7
20260505163049 50 253 6.1 13.0 0.00 0.00 0.00 46 1010.5
20260505161548 50 255 3.5 7.8 0.00 0.00 0.00 47 1010.5
20260505153042 50 247 3.5 7.0 0.00 0.00 0.00 46 1010.6
20260505151537 49 263 0.0 5.2 0.00 0.00 0.00 49 1010.7
20260505124531 42 252 3.5 6.1 0.00 0.00 0.00 67 1010.0
20260505123023 42 250 2.6 5.2 0.00 0.00 0.00 67 1009.8
20260505121522 40 242 1.7 4.3 0.00 0.00 0.00 70 1009.6
20260505120020 39 240 0.0 0.0 0.00 0.00 0.00 68 1009.3
20260505114518 38 240 0.0 0.0 0.00 0.00 0.00 68 1009.0
20260505113116 37 240 0.0 0.0 0.00 0.00 0.00 68 1008.9
20260505111513 37 240 0.0 0.0 0.00 0.00 0.00 66 1008.6
20260505101559 42 259 4.3 7.8 0.00 0.00 0.00 63 1007.8
20260505100056 42 259 5.2 8.7 0.00 0.00 0.00 62 1007.5
20260505094554 43 254 6.1 8.7 0.00 0.00 0.00 62 1007.3
20260505093050 43 248 3.5 8.7 0.00 0.00 0.00 62 1007.3